Time,TemperatureF,DewpointF,PressureIn,WindDirection,WindDirectionDegrees,WindSpeedMPH,WindSpeedGustMPH,Humidity,HourlyPrecipIn,Conditions,Clouds,dailyrainin,SoftwareType,DateUTC
2013-08-04 00:01:00,76.9,75.1,30.13,NNE,13,0.0,0.0,94,0.00,,---,0.00,VWS V13.01,2013-08-04 04:01:00,
2013-08-04 00:02:00,77.0,75.1,30.13,NNE,13,0.0,0.0,94,0.00,,---,0.00,VWS V13.01,2013-08-04 04:02:00,
2013-08-04 00:07:00,76.9,75.1,30.13,NNE,13,0.0,0.0,94,0.00,,---,0.00,VWS V13.01,2013-08-04 04:07:00,
2013-08-04 00:12:00,77.0,75.2,30.13,NW,326,0.0,0.0,94,0.00,,---,0.00,VWS V13.01,2013-08-04 04:12:00,
2013-08-04 00:17:00,77.0,75.2,30.12,NW,326,0.0,0.0,94,0.00,,---,0.00,VWS V13.01,2013-08-04 04:17:00,
2013-08-04 00:22:00,77.0,75.2,30.12,NW,326,0.0,0.0,94,0.00,,---,0.00,VWS V13.01,2013-08-04 04:22:00,
2013-08-04 00:27:00,77.0,75.2,30.12,NW,326,0.0,0.0,94,0.00,,---,0.00,VWS V13.01,2013-08-04 04:27:00,
2013-08-04 00:32:00,77.0,75.2,30.12,NW,326,0.0,0.0,94,0.00,,---,0.00,VWS V13.01,2013-08-04 04:32:00,
2013-08-04 00:37:00,76.8,75.0,30.12,NW,326,0.0,0.0,94,0.00,,---,0.00,VWS V13.01,2013-08-04 04:37:00,
2013-08-04 00:42:00,76.8,75.0,30.12,NW,326,0.0,0.0,94,0.00,,---,0.00,VWS V13.01,2013-08-04 04:42:00,
2013-08-04 00:47:00,76.7,75.0,30.12,NW,326,0.0,0.0,94,0.00,,---,0.00,VWS V13.01,2013-08-04 04:47:00,
2013-08-04 00:52:00,76.9,75.2,30.12,NW,326,0.0,0.0,94,0.00,,---,0.00,VWS V13.01,2013-08-04 04:52:00,
2013-08-04 00:57:00,77.0,75.3,30.11,NW,326,0.0,0.0,94,0.00,,---,0.00,VWS V13.01,2013-08-04 04:57:00,
2013-08-04 01:02:00,77.0,75.3,30.11,NW,326,0.0,0.0,94,0.00,,---,0.00,VWS V13.01,2013-08-04 05:02:00,
2013-08-04 01:07:00,76.9,75.2,30.11,NW,326,0.0,0.0,94,0.00,,---,0.00,VWS V13.01,2013-08-04 05:07:00,
2013-08-04 01:13:00,76.8,75.1,30.11,NW,326,0.0,0.0,94,0.00,,---,0.00,VWS V13.01,2013-08-04 05:13:00,
2013-08-04 01:18:00,77.0,75.3,30.11,NW,326,0.0,0.0,94,0.00,,---,0.00,VWS V13.01,2013-08-04 05:18:00,
2013-08-04 01:23:00,77.0,75.3,30.11,NW,326,0.0,0.0,94,0.00,,---,0.00,VWS V13.01,2013-08-04 05:23:00,
2013-08-04 01:28:00,76.9,75.2,30.10,NW,326,0.0,0.0,94,0.00,,---,0.00,VWS V13.01,2013-08-04 05:28:00,
2013-08-04 01:33:00,77.0,75.3,30.10,NW,326,0.0,0.0,94,0.00,,---,0.00,VWS V13.01,2013-08-04 05:33:00,
2013-08-04 01:38:00,76.9,75.2,30.10,NW,326,0.0,0.0,95,0.00,,---,0.00,VWS V13.01,2013-08-04 05:38:00,
2013-08-04 01:43:00,76.9,75.2,30.10,NW,326,0.0,0.0,95,0.00,,---,0.00,VWS V13.01,2013-08-04 05:43:00,
2013-08-04 01:48:00,76.9,75.2,30.10,NW,326,0.0,0.0,95,0.00,,---,0.00,VWS V13.01,2013-08-04 05:48:00,
2013-08-04 01:53:00,76.9,75.2,30.10,NW,326,0.0,0.0,94,0.00,,---,0.00,VWS V13.01,2013-08-04 05:53:00,
2013-08-04 01:58:00,76.9,75.2,30.10,NW,326,0.0,0.0,94,0.00,,---,0.00,VWS V13.01,2013-08-04 05:58:00,
2013-08-04 02:03:00,76.8,75.1,30.09,NW,326,0.0,0.0,94,0.00,,---,0.00,VWS V13.01,2013-08-04 06:03:00,
2013-08-04 02:08:00,76.9,75.1,30.09,NW,326,0.0,0.0,94,0.00,,---,0.00,VWS V13.01,2013-08-04 06:08:00,
2013-08-04 02:13:00,76.9,75.1,30.09,NW,326,0.0,0.0,94,0.00,,---,0.00,VWS V13.01,2013-08-04 06:13:00,
2013-08-04 02:18:00,76.8,74.9,30.09,NW,326,0.0,0.0,94,0.00,,---,0.00,VWS V13.01,2013-08-04 06:18:00,
2013-08-04 02:24:00,76.8,74.9,30.09,NW,326,0.0,0.0,94,0.00,,---,0.00,VWS V13.01,2013-08-04 06:24:00,
2013-08-04 02:29:00,77.1,75.2,30.08,NW,326,0.0,0.0,94,0.00,,---,0.00,VWS V13.01,2013-08-04 06:29:00,
2013-08-04 02:34:00,77.0,75.1,30.08,NW,326,0.0,0.0,94,0.00,,---,0.00,VWS V13.01,2013-08-04 06:34:00,
2013-08-04 02:39:00,77.0,75.1,30.08,NW,326,0.0,0.0,94,0.00,,---,0.00,VWS V13.01,2013-08-04 06:39:00,
2013-08-04 02:44:00,77.2,75.2,30.08,NW,326,0.0,0.0,94,0.00,,---,0.00,VWS V13.01,2013-08-04 06:44:00,
2013-08-04 02:49:00,77.0,75.0,30.08,NW,326,0.0,0.0,94,0.00,,---,0.00,VWS V13.01,2013-08-04 06:49:00,
2013-08-04 02:54:00,77.1,75.1,30.09,NW,326,0.0,0.0,94,0.00,,---,0.00,VWS V13.01,2013-08-04 06:54:00,
2013-08-04 02:59:00,77.1,75.1,30.09,NW,326,0.0,0.0,94,0.00,,---,0.00,VWS V13.01,2013-08-04 06:59:00,
2013-08-04 03:04:00,77.1,75.2,30.09,NW,326,0.0,0.0,94,0.00,,---,0.00,VWS V13.01,2013-08-04 07:04:00,
2013-08-04 03:09:00,77.1,75.2,30.09,NW,326,0.0,0.0,94,0.00,,---,0.00,VWS V13.01,2013-08-04 07:09:00,
2013-08-04 03:14:00,77.1,75.2,30.09,NW,326,0.0,0.0,94,0.00,,---,0.00,VWS V13.01,2013-08-04 07:14:00,
2013-08-04 03:19:00,77.0,75.1,30.09,NW,326,0.0,0.0,94,0.00,,---,0.00,VWS V13.01,2013-08-04 07:19:00,
2013-08-04 03:24:00,77.1,75.2,30.09,NW,326,0.0,0.0,94,0.00,,---,0.00,VWS V13.01,2013-08-04 07:24:00,
2013-08-04 03:29:00,77.1,75.2,30.09,NW,326,0.0,0.0,94,0.00,,---,0.00,VWS V13.01,2013-08-04 07:29:00,
2013-08-04 03:34:00,77.1,75.2,30.09,NW,326,0.0,0.0,94,0.00,,---,0.00,VWS V13.01,2013-08-04 07:34:00,
2013-08-04 03:39:00,77.0,75.2,30.09,NW,326,0.0,0.0,94,0.00,,---,0.00,VWS V13.01,2013-08-04 07:39:00,
2013-08-04 03:44:00,77.1,75.3,30.09,NW,326,0.0,0.0,94,0.00,,---,0.00,VWS V13.01,2013-08-04 07:44:00,
2013-08-04 03:50:00,77.1,75.3,30.09,NW,326,0.0,0.0,94,0.00,,---,0.00,VWS V13.01,2013-08-04 07:50:00,
2013-08-04 03:55:00,77.0,75.2,30.08,NW,326,0.0,0.0,94,0.00,,---,0.00,VWS V13.01,2013-08-04 07:55:00,
2013-08-04 04:00:00,77.0,75.2,30.08,NW,326,0.0,0.0,94,0.00,,---,0.00,VWS V13.01,2013-08-04 08:00:00,
2013-08-04 04:05:00,76.9,75.1,30.08,NW,326,0.0,0.0,94,0.00,,---,0.00,VWS V13.01,2013-08-04 08:05:00,
2013-08-04 04:10:00,76.8,75.0,30.08,NW,326,0.0,0.0,94,0.00,,---,0.00,VWS V13.01,2013-08-04 08:10:00,
2013-08-04 04:15:00,77.0,75.2,30.08,NW,326,0.0,0.0,94,0.00,,---,0.00,VWS V13.01,2013-08-04 08:15:00,
2013-08-04 04:20:00,77.0,75.2,30.08,NW,326,0.0,0.0,94,0.00,,---,0.00,VWS V13.01,2013-08-04 08:20:00,
2013-08-04 04:25:00,76.9,75.2,30.08,NW,326,0.0,0.0,94,0.00,,---,0.00,VWS V13.01,2013-08-04 08:25:00,
2013-08-04 04:30:00,77.0,75.3,30.08,NW,326,0.0,0.0,94,0.00,,---,0.00,VWS V13.01,2013-08-04 08:30:00,
2013-08-04 04:35:00,77.0,75.3,30.08,NW,326,0.0,0.0,94,0.00,,---,0.00,VWS V13.01,2013-08-04 08:35:00,
2013-08-04 04:40:00,76.7,75.0,30.08,NW,326,0.0,0.0,94,0.00,,---,0.00,VWS V13.01,2013-08-04 08:40:00,
2013-08-04 04:45:00,76.8,75.1,30.08,NW,326,0.0,0.0,94,0.00,,---,0.00,VWS V13.01,2013-08-04 08:45:00,
2013-08-04 04:51:00,76.8,75.1,30.08,NW,326,0.0,0.0,95,0.00,,---,0.00,VWS V13.01,2013-08-04 08:51:00,
2013-08-04 04:56:00,76.8,75.1,30.08,NW,326,0.0,0.0,95,0.00,,---,0.00,VWS V13.01,2013-08-04 08:56:00,
2013-08-04 05:01:00,76.8,75.2,30.08,NW,326,0.0,0.0,95,0.00,,---,0.00,VWS V13.01,2013-08-04 09:01:00,
2013-08-04 05:06:00,76.9,75.3,30.08,NW,326,0.0,0.0,95,0.00,,---,0.00,VWS V13.01,2013-08-04 09:06:00,
2013-08-04 05:11:00,76.7,75.1,30.08,NW,326,0.0,0.0,95,0.00,,---,0.00,VWS V13.01,2013-08-04 09:11:00,
2013-08-04 05:16:00,76.7,75.1,30.07,NW,326,0.0,0.0,95,0.00,,---,0.00,VWS V13.01,2013-08-04 09:16:00,
2013-08-04 05:21:00,76.7,75.1,30.08,NW,326,0.0,0.0,95,0.00,,---,0.00,VWS V13.01,2013-08-04 09:21:00,
2013-08-04 05:26:00,76.6,75.0,30.07,NW,326,0.0,0.0,95,0.00,,---,0.00,VWS V13.01,2013-08-04 09:26:00,
2013-08-04 05:31:00,76.9,75.3,30.08,NW,326,0.0,0.0,95,0.00,,---,0.00,VWS V13.01,2013-08-04 09:31:00,
2013-08-04 05:36:00,76.9,75.3,30.08,NW,326,0.0,0.0,95,0.00,,---,0.00,VWS V13.01,2013-08-04 09:36:00,
2013-08-04 05:41:00,76.8,75.2,30.08,NW,326,0.0,0.0,95,0.00,,---,0.00,VWS V13.01,2013-08-04 09:41:00,
2013-08-04 05:47:00,76.7,75.1,30.08,NW,326,0.0,0.0,95,0.00,,---,0.00,VWS V13.01,2013-08-04 09:47:00,
2013-08-04 05:52:00,76.8,75.2,30.08,NW,326,0.0,0.0,95,0.00,,---,0.00,VWS V13.01,2013-08-04 09:52:00,
2013-08-04 05:57:00,76.5,74.9,30.08,NW,326,0.0,0.0,95,0.00,,---,0.00,VWS V13.01,2013-08-04 09:57:00,
2013-08-04 06:02:00,76.8,75.3,30.08,NW,326,0.0,0.0,95,0.00,,---,0.00,VWS V13.01,2013-08-04 10:02:00,
2013-08-04 06:07:00,76.8,75.3,30.08,NW,326,0.0,0.0,95,0.00,,---,0.00,VWS V13.01,2013-08-04 10:07:00,
2013-08-04 06:12:00,76.8,75.3,30.08,NW,326,0.0,0.0,95,0.00,,---,0.00,VWS V13.01,2013-08-04 10:12:00,
2013-08-04 06:17:00,76.8,75.3,30.09,NW,326,0.0,0.0,95,0.00,,---,0.00,VWS V13.01,2013-08-04 10:17:00,
2013-08-04 06:22:00,76.9,75.4,30.09,NW,326,0.0,0.0,95,0.00,,---,0.00,VWS V13.01,2013-08-04 10:22:00,
2013-08-04 06:27:00,76.8,75.3,30.09,NW,326,0.0,0.0,95,0.00,,---,0.00,VWS V13.01,2013-08-04 10:27:00,
2013-08-04 06:32:00,76.8,75.3,30.09,NW,326,0.0,0.0,95,0.00,,---,0.00,VWS V13.01,2013-08-04 10:32:00,
2013-08-04 06:37:00,76.7,75.2,30.09,NW,326,0.0,0.0,95,0.00,,---,0.00,VWS V13.01,2013-08-04 10:37:00,
2013-08-04 06:42:00,76.8,75.3,30.09,NW,326,0.0,0.0,95,0.00,,---,0.00,VWS V13.01,2013-08-04 10:42:00,
2013-08-04 06:47:00,76.7,75.1,30.09,NW,326,0.0,0.0,95,0.00,,---,0.00,VWS V13.01,2013-08-04 10:47:00,
2013-08-04 06:52:00,76.5,74.9,30.09,NW,326,0.0,0.0,95,0.00,,---,0.00,VWS V13.01,2013-08-04 10:52:00,
2013-08-04 06:57:00,76.8,75.1,30.09,NW,326,0.0,0.0,95,0.00,,---,0.00,VWS V13.01,2013-08-04 10:57:00,
2013-08-04 07:02:00,76.8,75.1,30.09,NW,326,0.0,0.0,95,0.00,,---,0.00,VWS V13.01,2013-08-04 11:02:00,
2013-08-04 07:08:00,76.8,75.1,30.09,NW,326,0.0,0.0,95,0.00,,---,0.00,VWS V13.01,2013-08-04 11:08:00,
2013-08-04 07:13:00,76.9,75.3,30.09,NW,326,0.0,0.0,95,0.00,,---,0.00,VWS V13.01,2013-08-04 11:13:00,
2013-08-04 07:17:00,76.9,75.2,30.10,NW,326,0.0,0.0,95,0.00,,---,0.00,VWS V13.01,2013-08-04 11:17:00,
2013-08-04 07:23:00,76.9,75.2,30.10,NW,326,0.0,0.0,94,0.00,,---,0.00,VWS V13.01,2013-08-04 11:23:00,
2013-08-04 07:28:00,76.8,75.1,30.10,NW,326,0.0,0.0,94,0.00,,---,0.00,VWS V13.01,2013-08-04 11:28:00,
2013-08-04 07:32:00,76.9,75.2,30.10,NW,326,0.0,0.0,94,0.00,,---,0.00,VWS V13.01,2013-08-04 11:32:00,
2013-08-04 07:38:00,77.2,75.5,30.10,NW,326,0.0,0.0,95,0.00,,---,0.00,VWS V13.01,2013-08-04 11:38:00,
2013-08-04 07:43:00,77.2,75.5,30.10,NW,326,0.0,0.0,95,0.00,,---,0.00,VWS V13.01,2013-08-04 11:43:00,
2013-08-04 07:48:00,77.7,76.0,30.10,NW,326,0.0,0.0,94,0.00,,---,0.00,VWS V13.01,2013-08-04 11:48:00,
2013-08-04 07:53:00,77.8,76.1,30.10,NW,326,0.0,0.0,94,0.00,,---,0.00,VWS V13.01,2013-08-04 11:53:00,
2013-08-04 07:58:00,77.9,76.2,30.10,NW,326,0.0,0.0,94,0.00,,---,0.00,VWS V13.01,2013-08-04 11:58:00,
2013-08-04 08:03:00,78.2,76.5,30.10,NW,326,0.0,0.0,94,0.00,,---,0.00,VWS V13.01,2013-08-04 12:03:00,
2013-08-04 08:08:00,78.7,77.0,30.10,NW,326,0.0,0.0,94,0.00,,---,0.00,VWS V13.01,2013-08-04 12:08:00,
2013-08-04 08:13:00,79.1,77.1,30.10,NW,326,0.0,0.0,94,0.00,,---,0.00,VWS V13.01,2013-08-04 12:13:00,
2013-08-04 08:18:00,79.4,77.3,30.10,NW,326,0.0,0.0,93,0.00,,---,0.00,VWS V13.01,2013-08-04 12:18:00,
2013-08-04 08:23:00,80.0,77.6,30.10,NW,315,0.0,0.0,92,0.00,,---,0.00,VWS V13.01,2013-08-04 12:23:00,
2013-08-04 08:28:00,80.9,78.0,30.10,NW,315,0.0,0.0,91,0.00,,---,0.00,VWS V13.01,2013-08-04 12:28:00,
2013-08-04 08:33:00,82.0,78.5,30.10,NW,315,0.0,0.3,89,0.00,,---,0.00,VWS V13.01,2013-08-04 12:33:00,
2013-08-04 08:38:00,83.1,78.8,30.10,South,187,0.0,0.0,87,0.00,,---,0.00,VWS V13.01,2013-08-04 12:38:00,
2013-08-04 08:43:00,83.5,77.7,30.10,North,0,0.0,0.0,83,0.00,,---,0.00,VWS V13.01,2013-08-04 12:43:00,
2013-08-04 08:49:00,84.2,76.8,30.11,NNE,17,1.7,2.2,78,0.00,,---,0.00,VWS V13.01,2013-08-04 12:49:00,
2013-08-04 08:54:00,84.7,77.7,30.11,WNW,287,3.0,4.1,80,0.00,,---,0.00,VWS V13.01,2013-08-04 12:54:00,
2013-08-04 08:59:00,84.9,76.9,30.11,WNW,295,1.6,2.2,77,0.00,,---,0.00,VWS V13.01,2013-08-04 12:59:00,
2013-08-04 09:04:00,85.1,77.4,30.11,NW,323,1.8,1.8,78,0.00,,---,0.00,VWS V13.01,2013-08-04 13:04:00,
2013-08-04 09:09:00,85.2,76.7,30.11,WSW,239,0.0,2.8,76,0.00,,---,0.00,VWS V13.01,2013-08-04 13:09:00,
2013-08-04 09:14:00,85.4,76.7,30.11,SW,224,1.3,2.2,75,0.00,,---,0.00,VWS V13.01,2013-08-04 13:14:00,
2013-08-04 09:19:00,85.2,76.3,30.11,WNW,302,1.8,2.5,75,0.00,,---,0.00,VWS V13.01,2013-08-04 13:19:00,
2013-08-04 09:24:00,85.3,76.4,30.11,SW,229,0.5,2.2,75,0.00,,---,0.00,VWS V13.01,2013-08-04 13:24:00,
2013-08-04 09:29:00,85.5,76.3,30.11,SW,217,1.6,1.7,74,0.00,,---,0.00,VWS V13.01,2013-08-04 13:29:00,
2013-08-04 09:34:00,86.0,76.7,30.11,SSW,201,0.0,0.0,74,0.00,,---,0.00,VWS V13.01,2013-08-04 13:34:00,
2013-08-04 09:39:00,86.2,76.4,30.11,East,98,0.7,2.8,73,0.00,,---,0.00,VWS V13.01,2013-08-04 13:39:00,
2013-08-04 09:44:00,86.2,76.3,30.11,West,267,1.7,2.2,72,0.00,,---,0.00,VWS V13.01,2013-08-04 13:44:00,
2013-08-04 09:49:00,86.1,76.4,30.11,SSW,210,0.9,2.3,73,0.00,,---,0.00,VWS V13.01,2013-08-04 13:49:00,
2013-08-04 09:54:00,86.1,76.1,30.11,NW,305,1.5,2.2,72,0.00,,---,0.00,VWS V13.01,2013-08-04 13:54:00,
2013-08-04 09:59:00,86.1,75.7,30.11,West,277,1.1,3.2,71,0.00,,---,0.00,VWS V13.01,2013-08-04 13:59:00,
2013-08-04 10:04:00,86.1,75.9,30.11,WSW,252,2.2,2.5,72,0.00,,---,0.00,VWS V13.01,2013-08-04 14:04:00,
2013-08-04 10:09:00,86.3,75.8,30.10,WNW,292,1.4,2.9,71,0.00,,---,0.00,VWS V13.01,2013-08-04 14:09:00,
2013-08-04 10:14:00,86.6,76.1,30.10,WSW,238,0.0,0.8,71,0.00,,---,0.00,VWS V13.01,2013-08-04 14:14:00,
2013-08-04 10:19:00,86.8,75.4,30.10,NNE,28,0.0,1.0,69,0.00,,---,0.00,VWS V13.01,2013-08-04 14:19:00,
2013-08-04 10:24:00,87.4,75.9,30.10,WNW,284,3.5,4.7,69,0.00,,---,0.00,VWS V13.01,2013-08-04 14:24:00,
2013-08-04 10:29:00,87.5,75.6,30.10,WSW,238,0.0,0.0,68,0.00,,---,0.00,VWS V13.01,2013-08-04 14:29:00,
2013-08-04 10:34:00,87.8,75.7,30.10,West,278,2.0,4.3,68,0.00,,---,0.00,VWS V13.01,2013-08-04 14:34:00,
2013-08-04 10:40:00,87.7,73.9,30.10,NNW,328,2.2,7.0,64,0.00,,---,0.00,VWS V13.01,2013-08-04 14:40:00,
2013-08-04 10:45:00,87.8,74.0,30.10,NW,319,3.9,3.9,64,0.00,,---,0.00,VWS V13.01,2013-08-04 14:45:00,
2013-08-04 10:50:00,87.9,74.5,30.10,West,276,2.6,3.9,65,0.00,,---,0.00,VWS V13.01,2013-08-04 14:50:00,
2013-08-04 10:55:00,88.2,75.3,30.10,WNW,300,2.8,3.3,66,0.00,,---,0.00,VWS V13.01,2013-08-04 14:55:00,
2013-08-04 11:00:00,88.2,75.1,30.10,North,353,4.5,4.8,65,0.00,,---,0.00,VWS V13.01,2013-08-04 15:00:00,
2013-08-04 11:05:00,88.1,73.9,30.10,NW,326,3.7,4.7,63,0.00,,---,0.00,VWS V13.01,2013-08-04 15:05:00,
2013-08-04 11:10:00,87.7,73.9,30.10,SW,231,1.9,4.1,64,0.00,,---,0.00,VWS V13.01,2013-08-04 15:10:00,
2013-08-04 11:15:00,87.6,74.0,30.10,SSW,205,1.2,2.4,64,0.00,,---,0.00,VWS V13.01,2013-08-04 15:15:00,
2013-08-04 11:20:00,87.5,73.9,30.10,NNW,335,2.4,2.9,64,0.00,,---,0.00,VWS V13.01,2013-08-04 15:20:00,
2013-08-04 11:25:00,87.8,73.6,30.10,WNW,285,2.5,3.7,63,0.00,,---,0.00,VWS V13.01,2013-08-04 15:25:00,
2013-08-04 11:30:00,88.3,73.6,30.09,SSE,149,0.0,0.9,62,0.00,,---,0.00,VWS V13.01,2013-08-04 15:30:00,
2013-08-04 11:35:00,88.5,72.9,30.09,West,267,2.5,5.2,60,0.00,,---,0.00,VWS V13.01,2013-08-04 15:35:00,
2013-08-04 11:40:00,89.0,73.6,30.09,West,263,6.0,6.0,60,0.00,,---,0.00,VWS V13.01,2013-08-04 15:40:00,
2013-08-04 11:45:00,89.2,73.1,30.09,SW,231,3.9,4.7,59,0.00,,---,0.00,VWS V13.01,2013-08-04 15:45:00,
2013-08-04 11:50:00,90.3,73.5,30.09,WSW,238,4.5,5.7,58,0.00,,---,0.00,VWS V13.01,2013-08-04 15:50:00,
2013-08-04 11:55:00,90.5,73.2,30.09,SW,228,3.4,4.4,57,0.00,,---,0.00,VWS V13.01,2013-08-04 15:55:00,
2013-08-04 12:00:00,90.4,72.8,30.09,WNW,288,2.9,5.9,56,0.00,,---,0.00,VWS V13.01,2013-08-04 16:00:00,
2013-08-04 12:05:00,90.6,72.7,30.09,North,357,3.4,6.0,56,0.00,,---,0.00,VWS V13.01,2013-08-04 16:05:00,
2013-08-04 12:10:00,90.6,72.3,30.09,NNW,339,3.1,3.5,55,0.00,,---,0.00,VWS V13.01,2013-08-04 16:10:00,
2013-08-04 12:15:00,90.7,72.3,30.09,South,191,2.5,8.0,55,0.00,,---,0.00,VWS V13.01,2013-08-04 16:15:00,
2013-08-04 12:20:00,91.0,72.2,30.09,West,271,2.8,4.7,54,0.00,,---,0.00,VWS V13.01,2013-08-04 16:20:00,
2013-08-04 12:25:00,90.8,72.5,30.08,NNE,15,1.4,4.3,55,0.00,,---,0.00,VWS V13.01,2013-08-04 16:25:00,
2013-08-04 12:30:00,90.5,72.0,30.08,SSE,156,2.8,3.9,55,0.00,,---,0.00,VWS V13.01,2013-08-04 16:30:00,
2013-08-04 12:35:00,90.9,73.6,30.08,SSW,200,5.8,8.3,57,0.00,,---,0.00,VWS V13.01,2013-08-04 16:35:00,
2013-08-04 12:40:00,91.1,72.2,30.07,SW,222,0.0,7.2,54,0.00,,---,0.00,VWS V13.01,2013-08-04 16:40:00,
2013-08-04 12:45:00,91.1,73.3,30.07,WNW,285,5.8,6.7,56,0.00,,---,0.00,VWS V13.01,2013-08-04 16:45:00,
2013-08-04 12:50:00,90.9,74.3,30.07,WSW,238,3.2,8.0,58,0.00,,---,0.00,VWS V13.01,2013-08-04 16:50:00,
2013-08-04 12:55:00,90.8,74.2,30.07,South,187,5.0,8.9,58,0.00,,---,0.00,VWS V13.01,2013-08-04 16:55:00,
2013-08-04 13:00:00,90.9,74.2,30.06,South,184,3.8,8.1,58,0.00,,---,0.00,VWS V13.01,2013-08-04 17:00:00,
2013-08-04 13:05:00,91.1,74.3,30.06,NE,49,0.6,2.2,58,0.00,,---,0.00,VWS V13.01,2013-08-04 17:05:00,
2013-08-04 13:10:00,91.0,74.3,30.06,SSE,167,7.3,7.5,58,0.00,,---,0.00,VWS V13.01,2013-08-04 17:10:00,
2013-08-04 13:15:00,91.0,75.4,30.05,SSE,162,6.1,6.1,60,0.00,,---,0.00,VWS V13.01,2013-08-04 17:15:00,
2013-08-04 13:20:00,91.3,74.7,30.05,South,172,2.1,4.8,58,0.00,,---,0.00,VWS V13.01,2013-08-04 17:20:00,
2013-08-04 13:25:00,91.1,74.5,30.05,South,179,4.5,5.8,58,0.00,,---,0.00,VWS V13.01,2013-08-04 17:25:00,
2013-08-04 13:30:00,90.9,74.7,30.05,SW,222,5.6,7.5,59,0.00,,---,0.00,VWS V13.01,2013-08-04 17:30:00,
2013-08-04 13:35:00,90.3,75.1,30.05,SE,132,3.2,6.1,61,0.00,,---,0.00,VWS V13.01,2013-08-04 17:35:00,
2013-08-04 13:40:00,90.0,75.3,30.05,SE,138,2.4,4.4,62,0.00,,---,0.00,VWS V13.01,2013-08-04 17:40:00,
2013-08-04 13:45:00,90.0,75.1,30.04,SE,143,0.4,4.2,62,0.00,,---,0.00,VWS V13.01,2013-08-04 17:45:00,
2013-08-04 13:50:00,89.9,74.6,30.04,SSW,204,1.2,3.5,61,0.00,,---,0.00,VWS V13.01,2013-08-04 17:50:00,
2013-08-04 13:55:00,89.9,74.4,30.04,SSE,166,3.4,6.8,60,0.00,,---,0.00,VWS V13.01,2013-08-04 17:55:00,
2013-08-04 14:00:00,89.8,74.5,30.03,SSE,165,4.0,8.3,61,0.00,,---,0.00,VWS V13.01,2013-08-04 18:00:00,
2013-08-04 14:05:00,90.1,74.2,30.03,South,190,9.2,9.8,60,0.00,,---,0.00,VWS V13.01,2013-08-04 18:05:00,
2013-08-04 14:10:00,90.0,75.1,30.03,SW,215,5.7,5.7,62,0.00,,---,0.00,VWS V13.01,2013-08-04 18:10:00,
2013-08-04 14:15:00,89.9,74.6,30.03,SSE,159,2.7,6.7,61,0.00,,---,0.00,VWS V13.01,2013-08-04 18:15:00,
2013-08-04 14:20:00,90.0,75.7,30.02,ESE,121,2.5,2.8,63,0.00,,---,0.00,VWS V13.01,2013-08-04 18:20:00,
2013-08-04 14:25:00,91.0,75.6,30.02,WSW,239,6.3,6.9,61,0.00,,---,0.00,VWS V13.01,2013-08-04 18:25:00,
2013-08-04 14:30:00,91.1,74.6,30.02,South,173,3.1,5.7,59,0.00,,---,0.00,VWS V13.01,2013-08-04 18:30:00,
2013-08-04 14:35:00,90.3,74.1,30.02,South,177,8.0,10.3,59,0.00,,---,0.00,VWS V13.01,2013-08-04 18:35:00,
2013-08-04 14:40:00,90.1,74.3,30.02,SSE,166,2.6,7.6,60,0.00,,---,0.00,VWS V13.01,2013-08-04 18:40:00,
2013-08-04 14:45:00,90.9,74.8,30.01,SSW,197,4.6,8.6,60,0.00,,---,0.00,VWS V13.01,2013-08-04 18:45:00,
2013-08-04 14:50:00,91.3,75.3,30.01,WSW,243,4.7,5.5,60,0.00,,---,0.00,VWS V13.01,2013-08-04 18:50:00,
2013-08-04 14:55:00,90.9,74.6,30.01,NE,53,2.2,8.7,59,0.00,,---,0.00,VWS V13.01,2013-08-04 18:55:00,
2013-08-04 15:00:00,91.1,75.0,30.01,South,174,5.0,8.3,59,0.00,,---,0.00,VWS V13.01,2013-08-04 19:00:00,
2013-08-04 15:05:00,90.4,73.4,30.00,South,172,3.5,9.6,58,0.00,,---,0.00,VWS V13.01,2013-08-04 19:05:00,
2013-08-04 15:10:00,90.8,74.2,30.00,SW,229,4.1,7.7,58,0.00,,---,0.00,VWS V13.01,2013-08-04 19:10:00,
2013-08-04 15:15:00,90.7,74.4,30.00,SSE,158,3.6,6.6,59,0.00,,---,0.00,VWS V13.01,2013-08-04 19:15:00,
2013-08-04 15:20:00,90.9,73.9,30.00,South,176,2.9,9.9,58,0.00,,---,0.00,VWS V13.01,2013-08-04 19:20:00,
2013-08-04 15:25:00,91.1,73.9,30.00,SSW,200,5.0,7.7,57,0.00,,---,0.00,VWS V13.01,2013-08-04 19:25:00,
2013-08-04 15:30:00,90.8,73.5,29.99,South,173,6.9,8.6,57,0.00,,---,0.00,VWS V13.01,2013-08-04 19:30:00,
2013-08-04 15:35:00,90.6,74.1,29.99,South,183,5.0,7.2,59,0.00,,---,0.00,VWS V13.01,2013-08-04 19:35:00,
2013-08-04 15:40:00,90.2,73.6,29.99,SSE,167,10.7,10.7,58,0.00,,---,0.00,VWS V13.01,2013-08-04 19:40:00,
2013-08-04 15:45:00,90.7,74.4,29.99,SSW,195,6.3,6.3,59,0.00,,---,0.00,VWS V13.01,2013-08-04 19:45:00,
2013-08-04 15:50:00,90.5,74.4,29.99,SSE,160,2.9,3.9,59,0.00,,---,0.00,VWS V13.01,2013-08-04 19:50:00,
2013-08-04 15:56:00,91.1,74.6,29.99,SE,138,3.0,3.3,59,0.00,,---,0.00,VWS V13.01,2013-08-04 19:56:00,
2013-08-04 16:01:00,90.8,74.1,29.98,SSE,156,4.8,6.5,58,0.00,,---,0.00,VWS V13.01,2013-08-04 20:01:00,
2013-08-04 16:05:00,91.3,74.6,29.98,SW,218,1.6,5.0,58,0.00,,---,0.00,VWS V13.01,2013-08-04 20:05:00,
2013-08-04 16:10:00,91.0,74.7,29.98,South,177,4.6,4.7,59,0.00,,---,0.00,VWS V13.01,2013-08-04 20:10:00,
2013-08-04 16:16:00,91.2,74.6,29.98,SSE,158,2.5,4.3,58,0.00,,---,0.00,VWS V13.01,2013-08-04 20:16:00,
2013-08-04 16:21:00,90.2,73.7,29.98,SSE,162,7.6,8.6,59,0.00,,---,0.00,VWS V13.01,2013-08-04 20:21:00,
2013-08-04 16:26:00,90.6,74.8,29.98,West,259,5.0,7.8,60,0.00,,---,0.00,VWS V13.01,2013-08-04 20:26:00,
2013-08-04 16:31:00,91.1,75.3,29.97,SSE,165,4.3,5.0,60,0.00,,---,0.00,VWS V13.01,2013-08-04 20:31:00,
2013-08-04 16:36:00,91.1,75.0,29.97,SSE,158,2.2,4.6,59,0.00,,---,0.00,VWS V13.01,2013-08-04 20:36:00,
2013-08-04 16:41:00,91.5,76.0,29.97,SSE,165,8.3,8.3,61,0.00,,---,0.00,VWS V13.01,2013-08-04 20:41:00,
2013-08-04 16:46:00,91.6,75.8,29.97,SW,219,7.9,9.3,60,0.00,,---,0.00,VWS V13.01,2013-08-04 20:46:00,
2013-08-04 16:52:00,90.8,75.2,29.98,SSE,152,3.7,5.0,60,0.00,,---,0.00,VWS V13.01,2013-08-04 20:52:00,
2013-08-04 16:57:00,90.7,75.4,29.98,SW,226,3.4,4.0,61,0.00,,---,0.00,VWS V13.01,2013-08-04 20:57:00,
2013-08-04 17:02:00,90.6,74.9,29.97,South,180,7.5,9.2,60,0.00,,---,0.00,VWS V13.01,2013-08-04 21:02:00,
2013-08-04 17:07:00,90.5,75.4,29.97,ESE,120,3.9,6.9,61,0.00,,---,0.00,VWS V13.01,2013-08-04 21:07:00,
2013-08-04 17:12:00,89.3,74.4,29.97,South,186,5.0,8.5,62,0.00,,---,0.00,VWS V13.01,2013-08-04 21:12:00,
2013-08-04 17:13:00,89.4,74.7,29.97,SSE,155,3.8,6.9,62,0.00,,---,0.00,VWS V13.01,2013-08-04 21:13:00,
2013-08-04 17:19:00,88.6,74.6,29.97,South,172,2.4,8.6,63,0.00,,---,0.00,VWS V13.01,2013-08-04 21:19:00,
2013-08-04 17:23:00,88.4,74.7,29.97,SSE,165,4.2,8.3,64,0.00,,---,0.00,VWS V13.01,2013-08-04 21:23:00,
2013-08-04 17:29:00,88.1,74.7,29.97,SSE,165,5.9,9.6,65,0.00,,---,0.00,VWS V13.01,2013-08-04 21:29:00,
2013-08-04 17:34:00,88.2,75.3,29.98,SE,131,1.6,2.2,66,0.00,,---,0.00,VWS V13.01,2013-08-04 21:34:00,
2013-08-04 17:39:00,88.2,75.1,29.98,ESE,121,1.5,3.5,65,0.00,,---,0.00,VWS V13.01,2013-08-04 21:39:00,
2013-08-04 17:44:00,88.2,75.3,29.98,SSE,165,2.5,3.4,66,0.00,,---,0.00,VWS V13.01,2013-08-04 21:44:00,
2013-08-04 17:49:00,87.7,75.2,29.99,ESE,107,0.9,3.7,67,0.00,,---,0.00,VWS V13.01,2013-08-04 21:49:00,
2013-08-04 17:54:00,87.9,75.4,29.98,SE,136,1.5,6.5,67,0.00,,---,0.00,VWS V13.01,2013-08-04 21:54:00,
2013-08-04 17:59:00,87.7,75.7,29.97,SSE,165,6.9,8.0,68,0.00,,---,0.00,VWS V13.01,2013-08-04 21:59:00,
2013-08-04 18:04:00,87.6,76.0,29.98,South,191,3.0,4.2,69,0.00,,---,0.00,VWS V13.01,2013-08-04 22:04:00,
2013-08-04 18:09:00,87.4,75.9,29.99,SW,231,1.8,1.8,69,0.00,,---,0.00,VWS V13.01,2013-08-04 22:09:00,
2013-08-04 18:14:00,87.3,75.9,29.99,South,188,2.4,2.8,69,0.00,,---,0.00,VWS V13.01,2013-08-04 22:14:00,
2013-08-04 18:20:00,86.8,74.7,29.99,North,357,8.0,8.0,67,0.00,,---,0.00,VWS V13.01,2013-08-04 22:20:00,
2013-08-04 18:25:00,86.3,74.0,30.00,North,11,5.2,9.0,67,0.00,,---,0.00,VWS V13.01,2013-08-04 22:25:00,
2013-08-04 18:30:00,81.8,75.1,30.02,NE,39,8.0,12.2,80,0.21,,---,0.21,VWS V13.01,2013-08-04 22:30:00,
2013-08-04 18:35:00,80.3,74.8,30.02,NE,46,3.9,7.5,83,0.23,,---,0.23,VWS V13.01,2013-08-04 22:35:00,
2013-08-04 18:40:00,79.4,75.0,30.02,East,80,3.2,6.6,86,0.24,,---,0.24,VWS V13.01,2013-08-04 22:40:00,
2013-08-04 18:45:00,79.0,75.7,30.02,East,97,2.9,2.9,90,0.24,,---,0.24,VWS V13.01,2013-08-04 22:45:00,
2013-08-04 18:50:00,79.1,75.8,30.02,NE,34,0.0,0.0,90,0.25,,---,0.25,VWS V13.01,2013-08-04 22:50:00,
2013-08-04 18:55:00,78.9,76.2,30.02,ESE,110,2.6,5.7,91,0.26,,---,0.26,VWS V13.01,2013-08-04 22:55:00,
2013-08-04 19:00:00,79.1,76.5,30.02,NE,52,0.5,2.4,92,0.26,,---,0.26,VWS V13.01,2013-08-04 23:00:00,
2013-08-04 19:05:00,78.8,76.2,30.02,ESE,103,3.5,3.5,92,0.26,,---,0.26,VWS V13.01,2013-08-04 23:05:00,
2013-08-04 19:10:00,78.5,75.9,30.02,SE,128,2.2,2.8,92,0.26,,---,0.26,VWS V13.01,2013-08-04 23:10:00,
2013-08-04 19:15:00,78.3,75.6,30.02,SSE,167,0.3,3.5,92,0.26,,---,0.26,VWS V13.01,2013-08-04 23:15:00,
2013-08-04 19:20:00,78.5,75.7,30.02,SW,228,0.9,2.2,91,0.26,,---,0.26,VWS V13.01,2013-08-04 23:20:00,
2013-08-04 19:25:00,78.5,75.7,30.03,ESE,118,1.2,2.1,91,0.26,,---,0.26,VWS V13.01,2013-08-04 23:25:00,
2013-08-04 19:30:00,78.3,75.6,30.03,East,89,0.0,0.0,92,0.05,,---,0.26,VWS V13.01,2013-08-04 23:30:00,
2013-08-04 19:35:00,78.3,75.5,30.03,SSE,158,0.0,1.9,91,0.03,,---,0.26,VWS V13.01,2013-08-04 23:35:00,
2013-08-04 19:40:00,78.1,75.3,30.03,South,183,1.7,5.5,91,0.02,,---,0.26,VWS V13.01,2013-08-04 23:40:00,
2013-08-04 19:46:00,78.3,75.4,30.03,SSW,195,0.6,2.5,91,0.02,,---,0.26,VWS V13.01,2013-08-04 23:46:00,
2013-08-04 19:51:00,78.4,75.6,30.02,SE,125,0.0,0.0,91,0.01,,---,0.26,VWS V13.01,2013-08-04 23:51:00,
2013-08-04 19:56:00,78.4,75.7,30.02,SE,134,0.0,0.0,91,0.00,,---,0.26,VWS V13.01,2013-08-04 23:56:00,
2013-08-04 20:01:00,78.5,75.8,30.02,SE,134,0.0,0.0,91,0.00,,---,0.26,VWS V13.01,2013-08-05 00:01:00,
2013-08-04 20:06:00,78.7,76.0,30.02,ESE,112,0.0,2.4,91,0.01,,---,0.27,VWS V13.01,2013-08-05 00:06:00,
2013-08-04 20:11:00,78.8,76.0,30.02,SSW,193,0.0,0.0,91,0.01,,---,0.27,VWS V13.01,2013-08-05 00:11:00,
2013-08-04 20:16:00,78.8,76.0,30.02,South,176,0.0,0.0,91,0.01,,---,0.27,VWS V13.01,2013-08-05 00:16:00,
2013-08-04 20:18:00,78.7,75.9,30.02,South,187,2.7,3.7,91,0.01,,---,0.27,VWS V13.01,2013-08-05 00:18:00,
2013-08-04 20:23:00,78.4,75.5,30.02,South,181,0.5,2.1,91,0.01,,---,0.27,VWS V13.01,2013-08-05 00:23:00,
2013-08-04 20:28:00,78.4,75.5,30.03,SE,131,2.8,2.8,91,0.01,,---,0.27,VWS V13.01,2013-08-05 00:28:00,
2013-08-04 20:33:00,78.2,75.2,30.03,SSW,193,0.0,0.0,90,0.01,,---,0.27,VWS V13.01,2013-08-05 00:33:00,
2013-08-04 20:38:00,78.3,75.3,30.03,South,179,0.0,0.0,90,0.01,,---,0.27,VWS V13.01,2013-08-05 00:38:00,
2013-08-04 20:43:00,78.4,75.4,30.03,South,179,0.0,0.0,91,0.01,,---,0.27,VWS V13.01,2013-08-05 00:43:00,
2013-08-04 20:49:00,78.5,75.5,30.03,South,179,0.0,0.0,91,0.01,,---,0.27,VWS V13.01,2013-08-05 00:49:00,
2013-08-04 20:54:00,78.4,75.6,30.03,South,179,0.0,0.0,91,0.01,,---,0.27,VWS V13.01,2013-08-05 00:54:00,
2013-08-04 20:58:00,78.7,75.8,30.04,East,91,0.0,0.0,91,0.01,,---,0.27,VWS V13.01,2013-08-05 00:58:00,
2013-08-04 21:04:00,78.5,75.6,30.04,East,91,0.0,0.0,91,0.01,,---,0.27,VWS V13.01,2013-08-05 01:04:00,
2013-08-04 21:08:00,78.7,75.8,30.04,East,91,0.0,0.0,91,0.00,,---,0.27,VWS V13.01,2013-08-05 01:08:00,
2013-08-04 21:14:00,78.5,75.6,30.04,East,91,0.0,0.0,91,0.00,,---,0.27,VWS V13.01,2013-08-05 01:14:00,
2013-08-04 21:19:00,78.7,75.9,30.04,East,91,0.0,0.0,91,0.00,,---,0.27,VWS V13.01,2013-08-05 01:19:00,
2013-08-04 21:24:00,78.9,76.1,30.04,East,91,0.0,0.0,91,0.00,,---,0.27,VWS V13.01,2013-08-05 01:24:00,
2013-08-04 21:29:00,79.0,76.2,30.04,East,91,0.0,0.0,91,0.00,,---,0.27,VWS V13.01,2013-08-05 01:29:00,
2013-08-04 21:34:00,79.0,76.2,30.04,East,91,0.0,0.0,91,0.00,,---,0.27,VWS V13.01,2013-08-05 01:34:00,
2013-08-04 21:39:00,78.8,75.9,30.05,East,91,0.0,0.0,91,0.00,,---,0.27,VWS V13.01,2013-08-05 01:39:00,
2013-08-04 21:44:00,79.1,76.2,30.05,East,91,0.0,0.0,91,0.00,,---,0.27,VWS V13.01,2013-08-05 01:44:00,
2013-08-04 21:49:00,78.9,76.2,30.05,East,91,0.0,0.0,91,0.00,,---,0.27,VWS V13.01,2013-08-05 01:49:00,
2013-08-04 21:54:00,79.2,76.4,30.05,East,91,0.0,0.0,91,0.00,,---,0.27,VWS V13.01,2013-08-05 01:54:00,
2013-08-04 21:59:00,79.1,76.3,30.05,East,91,0.0,0.0,91,0.00,,---,0.27,VWS V13.01,2013-08-05 01:59:00,
2013-08-04 22:05:00,79.1,76.3,30.05,East,91,0.0,0.0,91,0.00,,---,0.27,VWS V13.01,2013-08-05 02:05:00,
2013-08-04 22:09:00,79.1,76.3,30.05,East,91,0.0,0.0,91,0.00,,---,0.27,VWS V13.01,2013-08-05 02:09:00,
2013-08-04 22:15:00,79.1,76.3,30.05,East,91,0.0,0.0,91,0.00,,---,0.27,VWS V13.01,2013-08-05 02:15:00,
2013-08-04 22:20:00,79.1,76.4,30.05,East,91,0.0,0.0,92,0.00,,---,0.27,VWS V13.01,2013-08-05 02:20:00,
2013-08-04 22:25:00,79.2,76.5,30.05,East,91,0.0,0.0,91,0.00,,---,0.27,VWS V13.01,2013-08-05 02:25:00,
2013-08-04 22:30:00,79.1,76.4,30.05,East,91,0.0,0.0,91,0.00,,---,0.27,VWS V13.01,2013-08-05 02:30:00,
2013-08-04 22:35:00,79.2,76.5,30.06,East,91,0.0,0.0,92,0.00,,---,0.27,VWS V13.01,2013-08-05 02:35:00,
2013-08-04 22:40:00,79.3,76.6,30.06,East,91,0.0,0.0,92,0.00,,---,0.27,VWS V13.01,2013-08-05 02:40:00,
2013-08-04 22:45:00,79.1,76.4,30.05,East,91,0.0,0.0,92,0.00,,---,0.27,VWS V13.01,2013-08-05 02:45:00,
2013-08-04 22:50:00,79.3,76.6,30.05,East,91,0.0,0.0,92,0.00,,---,0.27,VWS V13.01,2013-08-05 02:50:00,
2013-08-04 22:55:00,79.1,76.4,30.05,East,91,0.0,0.0,91,0.00,,---,0.27,VWS V13.01,2013-08-05 02:55:00,
2013-08-04 23:00:00,79.1,76.3,30.05,East,91,0.0,0.0,91,0.00,,---,0.27,VWS V13.01,2013-08-05 03:00:00,
2013-08-04 23:05:00,79.2,76.4,30.05,East,91,0.0,0.0,91,0.00,,---,0.27,VWS V13.01,2013-08-05 03:05:00,
2013-08-04 23:10:00,79.1,76.3,30.05,SW,221,0.0,0.0,91,0.00,,---,0.27,VWS V13.01,2013-08-05 03:10:00,
2013-08-04 23:15:00,79.3,76.4,30.05,SSW,208,0.0,0.0,91,0.00,,---,0.27,VWS V13.01,2013-08-05 03:15:00,
2013-08-04 23:20:00,79.2,76.3,30.05,SSW,205,0.0,0.0,91,0.00,,---,0.27,VWS V13.01,2013-08-05 03:20:00,
2013-08-04 23:25:00,79.3,76.4,30.05,SSW,205,0.0,0.0,91,0.00,,---,0.27,VWS V13.01,2013-08-05 03:25:00,
2013-08-04 23:30:00,79.4,76.4,30.05,SSW,205,0.0,0.0,91,0.00,,---,0.27,VWS V13.01,2013-08-05 03:30:00,
2013-08-04 23:35:00,79.2,76.2,30.05,SSW,205,0.0,0.0,91,0.00,,---,0.27,VWS V13.01,2013-08-05 03:35:00,
2013-08-04 23:41:00,79.4,76.4,30.05,SSW,205,0.0,0.0,91,0.00,,---,0.27,VWS V13.01,2013-08-05 03:41:00,
2013-08-04 23:46:00,79.5,76.5,30.05,SSW,205,0.0,0.0,91,0.00,,---,0.27,VWS V13.01,2013-08-05 03:46:00,
2013-08-04 23:51:00,79.5,76.5,30.05,West,259,1.6,1.9,90,0.00,,---,0.27,VWS V13.01,2013-08-05 03:51:00,
2013-08-04 23:56:00,79.4,76.3,30.05,WSW,248,0.0,0.4,90,0.00,,---,0.27,VWS V13.01,2013-08-05 03:56:00,